Location: Cactus School
(34.5700°N, 118.0931°W)
Time: 23:00:02
(UTC-08:00)

Tiros 1 - Pass Details

Date: 25 November 2019
Orbit: 630 x 664 km, 48.4° (Epoch: 06 December)

Event Time Altitude Azimuth Distance (km) Brightness Sun altitude
Rises 12:54:35 0° 277° (W) 2,917 10.7 31.8°
Reaches altitude 10° 12:57:26 10° 294° (WNW) 2,007 9.8 31.6°
Maximum altitude 13:00:52 20° 342° (NNW) 1,451 8.7 31.3°
Drops below altitude 10° 13:04:18 10° 30° (NNE) 2,009 9.2 31.1°
Sets 13:07:10 0° 48° (NE) 2,919 10.0 30.8°
